| time (UTC) | temp C | wind direction | speed KPH | gust KPH | rain 1hr cm | rain 24hr cm | rain mn cm | humidity % | barometer mb |
| 20260503193008 | 15 | 206 | 8.0 | 17.7 | 0.00 | 0.00 | 0.00 | 81 | 1014.9 |
| 20260503191508 | 15 | 254 | 9.7 | 17.7 | 0.00 | 0.00 | 0.00 | 81 | 1014.9 |
| 20260503190017 | 15 | 171 | 8.0 | 17.7 | 0.00 | 0.00 | 0.00 | 81 | 1014.7 |
| 20260503184507 | 15 | 187 | 9.7 | 19.3 | 0.00 | 0.00 | 0.00 | 79 | 1014.8 |
| 20260503183014 | 15 | 225 | 9.7 | 16.1 | 0.00 | 0.00 | 0.00 | 81 | 1014.7 |
| 20260503181510 | 15 | 216 | 4.8 | 12.9 | 0.00 | 0.00 | 0.00 | 79 | 1014.6 |
| 20260503180012 | 15 | 217 | 4.8 | 11.3 | 0.00 | 0.00 | 0.00 | 81 | 1014.6 |
| 20260503174509 | 13 | 277 | 8.0 | 16.1 | 0.00 | 0.00 | 0.00 | 82 | 1014.7 |
| 20260503173004 | 13 | 219 | 11.3 | 19.3 | 0.00 | 0.00 | 0.00 | 82 | 1014.7 |
| 20260503171508 | 14 | 232 | 8.0 | 16.1 | 0.00 | 0.00 | 0.00 | 80 | 1014.5 |
| 20260503081507 | 12 | 246 | 0.0 | 3.2 | 0.00 | 0.00 | 0.00 | 84 | 1012.8 |
| 20260503071525 | 13 | 84 | 0.0 | 4.8 | 0.00 | 0.00 | 0.00 | 82 | 1012.8 |
| 20260503054536 | 13 | 23 | 1.6 | 6.4 | 0.00 | 0.00 | 0.00 | 82 | 1012.9 |
| 20260503053012 | 13 | 86 | 3.2 | 8.0 | 0.00 | 0.00 | 0.00 | 82 | 1013.1 |
| 20260503051517 | 13 | 9 | 3.2 | 6.4 | 0.00 | 0.00 | 0.00 | 83 | 1013.1 |
| 20260503050024 | 13 | 63 | 1.6 | 9.7 | 0.00 | 0.00 | 0.00 | 83 | 1013.2 |
| 20260503044528 | 13 | 69 | 3.2 | 8.0 | 0.00 | 0.00 | 0.00 | 83 | 1013.2 |
| 20260503043027 | 13 | 45 | 3.2 | 11.3 | 0.00 | 0.00 | 0.00 | 83 | 1012.8 |
| 20260503041518 | 13 | 56 | 1.6 | 9.7 | 0.00 | 0.00 | 0.00 | 83 | 1012.6 |
| 20260503040005 | 13 | 9 | 4.8 | 11.3 | 0.00 | 0.00 | 0.00 | 84 | 1012.4 |
| 20260503034506 | 13 | 36 | 6.4 | 16.1 | 0.00 | 0.00 | 0.00 | 83 | 1012.0 |
| 20260503033016 | 13 | 60 | 4.8 | 11.3 | 0.00 | 0.00 | 0.00 | 83 | 1011.9 |
| 20260503031513 | 13 | 55 | 4.8 | 12.9 | 0.00 | 0.00 | 0.00 | 83 | 1011.7 |
| 20260503030019 | 14 | 41 | 4.8 | 12.9 | 0.00 | 0.00 | 0.00 | 83 | 1011.8 |
| 20260503024522 | 14 | 63 | 4.8 | 14.5 | 0.00 | 0.00 | 0.00 | 81 | 1011.6 |
| 20260503023004 | 15 | 67 | 4.8 | 11.3 | 0.00 | 0.00 | 0.00 | 79 | 1011.4 |
| 20260503021512 | 15 | 50 | 4.8 | 9.7 | 0.00 | 0.00 | 0.00 | 79 | 1011.5 |
| 20260503020018 | 15 | 66 | 0.0 | 4.8 | 0.00 | 0.00 | 0.00 | 79 | 1011.5 |
| 20260503014533 | 15 | 194 | 4.8 | 6.4 | 0.00 | 0.00 | 0.00 | 76 | 1011.6 |
| 20260503013003 | 15 | 239 | 4.8 | 12.9 | 0.00 | 0.00 | 0.00 | 77 | 1011.6 |
| 20260503011511 | 15 | 238 | 4.8 | 12.9 | 0.00 | 0.00 | 0.00 | 78 | 1011.7 |
| 20260503010016 | 16 | 203 | 6.4 | 12.9 | 0.00 | 0.00 | 0.00 | 77 | 1011.7 |
| 20260503004526 | 16 | 236 | 4.8 | 12.9 | 0.00 | 0.00 | 0.00 | 77 | 1011.8 |
| 20260503003024 | 16 | 220 | 9.7 | 19.3 | 0.00 | 0.00 | 0.00 | 77 | 1011.9 |
| 20260503001504 | 16 | 233 | 11.3 | 29.0 | 0.00 | 0.00 | 0.00 | 78 | 1012.0 |
| 20260503000029 | 15 | 249 | 12.9 | 25.7 | 0.00 | 0.00 | 0.00 | 78 | 1012.1 |
| 20260502234515 | 16 | 199 | 12.9 | 22.5 | 0.00 | 0.00 | 0.00 | 76 | 1012.3 |
| 20260502233021 | 16 | 266 | 8.0 | 20.9 | 0.00 | 0.00 | 0.00 | 79 | 1012.4 |
| 20260502231527 | 15 | 233 | 16.1 | 25.7 | 0.00 | 0.00 | 0.00 | 79 | 1012.3 |
| 20260502230028 | 15 | 241 | 14.5 | 27.4 | 0.00 | 0.00 | 0.00 | 80 | 1012.9 |
| 20260502224511 | 15 | 252 | 16.1 | 27.4 | 0.00 | 0.00 | 0.00 | 81 | 1013.1 |
| 20260502223020 | 15 | 265 | 14.5 | 25.7 | 0.00 | 0.00 | 0.00 | 82 | 1013.4 |
| 20260502221522 | 15 | 240 | 12.9 | 22.5 | 0.00 | 0.00 | 0.00 | 82 | 1013.8 |
| 20260502220026 | 15 | 240 | 12.9 | 25.7 | 0.00 | 0.00 | 0.00 | 82 | 1014.1 |
| 20260502214513 | 14 | 192 | 14.5 | 29.0 | 0.00 | 0.00 | 0.00 | 84 | 1014.3 |
| 20260502213014 | 14 | 225 | 14.5 | 24.1 | 0.00 | 0.00 | 0.00 | 84 | 1014.3 |
| 20260502211538 | 14 | 197 | 11.3 | 24.1 | 0.00 | 0.00 | 0.00 | 85 | 1014.3 |
| 20260502210030 | 14 | 202 | 9.7 | 19.3 | 0.00 | 0.00 | 0.00 | 85 | 1014.3 |
| 20260502204528 | 15 | 255 | 11.3 | 22.5 | 0.00 | 0.00 | 0.00 | 83 | 1014.7 |
| 20260502203014 | 15 | 273 | 6.4 | 16.1 | 0.00 | 0.00 | 0.00 | 85 | 1015.0 |
| 20260502201518 | 14 | 201 | 9.7 | 19.3 | 0.00 | 0.00 | 0.00 | 85 | 1015.3 |
| 20260502200025 | 14 | 268 | 11.3 | 17.7 | 0.00 | 0.00 | 0.00 | 85 | 1015.5 |
| 20260502194528 | 14 | 259 | 6.4 | 14.5 | 0.00 | 0.00 | 0.00 | 87 | 1015.6 |